[[{"header":{"parameterUnit":"m.s-1","parameterCategory":1,"la1":30.2991,"la2":30.254,"lo1":-89.0895,"lo2":-89.0444,"dy":0.0017,"dx":0.0017,"nx":28,"ny":28,"refTime":"2025-08-28T03:00:00:Z","depth":0,"parameterNumber":2,"parameterNumberName":"U-component_of_WINDS"},"data":[0,0,0,0,0,0,0,0,0,0,0,0,0,0,0,0,0,0,0,0,0,0,0,0,0,0,0,0,0,0,0,0,0,0,0,0,0,0,0,0,0,0,0,0,0,0,0,0,0,0,0,0,0,0,0,0,0,0,-2.4505,-2.4504,0,-2.4469,-2.4468,-2.4468,-2.4377,-2.4375,-2.4373,-2.4372,-2.4337,-2.4338,-2.4339,0,0,0,0,0,0,0,0,0,0,0,0,0,-2.4496,-2.4497,-2.4505,-2.4504,-2.4504,-2.4469,-2.4468,-2.4468,-2.4378,-2.4375,-2.4373,-2.4371,-2.4337,-2.4338,-2.4339,0,0,0,0,0,0,0,0,0,0,0,0,0,-2.4484,-2.4497,-2.4505,-2.4455,-2.445,-2.4469,-2.4468,-2.4468,-2.4378,-2.4375,-2.4372,-2.437,-2.4337,-2.4338,-2.4339,-2.4405,0,0,-2.4343,-2.4344,0,0,0,0,0,0,0,0,-2.4485,-2.4485,-2.4462,-2.4458,-2.4453,-2.4425,-2.4453,-2.4447,-2.4379,-2.4405,-2.4372,-2.4368,-2.4369,-2.4367,-2.4367,-2.4404,-2.4402,-2.4343,-2.4344,-2.4345,-2.4345,0,0,0,0,0,0,0,-2.4486,-2.4486,-2.4491,-2.4462,-2.4456,-2.4434,-2.4429,-2.4451,-2.4404,-2.4403,-2.4396,-2.4393,-2.4366,-2.4366,-2.4366,-2.4402,-2.4343,-2.4345,-2.4345,-2.4346,-2.4491,-2.4494,0,0,0,0,0,0,-2.4494,-2.4487,-2.4492,-2.4489,-2.4462,-2.4437,-2.4431,-2.4437,-2.4403,-2.4395,-2.4396,-2.4389,-2.4365,-2.4364,-2.4364,-2.4439,-2.4345,-2.4346,-2.4347,-2.4488,-2.4491,-2.4495,0,0,0,0,0,0,-2.4494,-2.4495,-2.4493,-2.4486,-2.4484,-2.444,-2.4447,-2.4437,-2.4438,-2.4398,-2.4389,-2.4405,-2.4363,-2.4362,-2.4396,-2.4437,-2.4347,-2.4348,-2.4484,-2.4489,-2.4493,-2.4591,0,0,0,0,0,0,-2.4494,-2.4496,-2.452,-2.4488,-2.4485,-2.4525,-2.4449,-2.4439,-2.444,-2.4431,-2.4404,-2.4397,-2.4361,-2.4394,-2.4397,-2.4437,-2.4349,-2.448,-2.4486,-2.4492,-2.4584,-2.4598,-2.4611,0,0,0,0,0,-2.4494,-2.455,-2.4522,-2.4523,-2.4515,-2.4528,-2.4526,-2.4483,-2.4444,-2.4468,-2.4442,-2.4398,-2.4432,-2.4398,-2.4401,-2.4442,-2.4477,-2.4484,-2.4491,-2.4578,-2.4596,-2.461,0,0,0,0,0,0,-2.459,-2.4545,-2.4513,-2.456,-2.4548,-2.4512,-2.4542,-2.4503,-2.4503,-2.4495,-2.4441,-2.4436,-2.4477,-2.4462,-2.4426,-2.4504,-2.4447,-2.4455,-2.4512,-2.4529,-2.4542,-2.4545,-2.435,0,0,0,0,0,-2.4616,-2.463,-2.459,-2.4635,-2.463,-2.4587,-2.4591,-2.4559,-2.4545,-2.454,-2.4516,-2.4505,-2.4513,-2.452,-2.4525,-2.4581,-2.4574,-2.461,-2.4624,-2.4635,-2.4643,-2.4671,-2.4687,-2.4517,-2.4517,-2.4517,0,0,-2.4671,-2.4648,-2.466,-2.4653,-2.464,-2.4656,-2.4584,-2.4604,-2.4616,-2.4543,-2.4573,-2.4556,-2.454,-2.4585,-2.4603,-2.4574,-2.4688,-2.4644,-2.4653,-2.4655,-2.468,-2.4696,-2.4711,-2.4522,-2.4521,-2.452,0,0,-2.4779,-2.4763,-2.4798,-2.4787,-2.4768,-2.4738,-2.4747,-2.4717,-2.4702,-2.4731,-2.4677,-2.469,-2.4705,-2.4696,-2.4693,-2.4797,-2.4756,-2.48,-2.4871,-2.49,-2.4913,-2.4925,-2.4963,-2.4977,-2.4808,-2.4808,-2.4808,0,-2.485,-2.4871,-2.4822,-2.4845,-2.4844,-2.4778,-2.4814,-2.4805,-2.4789,-2.479,-2.4757,-2.4774,-2.4759,-2.4801,-2.4826,-2.4826,-2.4835,-2.4804,-2.4915,-2.4926,-2.4936,-2.4972,-2.4986,-2.4813,-2.4813,-2.4812,-2.4812,0,-2.496,-2.4975,-2.5007,-2.4992,-2.4994,-2.5024,-2.498,-2.4988,-2.4954,-2.4929,-2.496,-2.4938,-2.4938,-2.4945,-2.4913,-2.4983,-2.4965,-2.4924,-2.4866,-2.4959,-2.4992,-2.5005,-2.4821,-2.4819,-2.4818,-2.4816,0,0,-2.5129,-2.5086,-2.5098,-2.5091,-2.5064,-2.5076,-2.5102,-2.5101,-2.511,-2.51,-2.5122,-2.5136,-2.5097,-2.5094,-2.5061,-2.5086,-2.517,-2.5041,-2.504,-2.5067,-2.5246,-2.5278,-2.5295,-2.5142,-2.5144,-2.5146,-2.5248,0,-2.5232,-2.5275,-2.523,-2.5283,-2.5297,-2.5233,-2.5256,-2.5243,-2.522,-2.5228,-2.5202,-2.5213,-2.5161,-2.5159,-2.5181,-2.5155,-2.5206,-2.5147,-2.5163,-2.5164,-2.5171,-2.5312,-2.5346,-2.5443,-2.526,-2.5262,-2.5264,0,-2.5358,-2.5354,-2.5408,-2.5377,-2.5381,-2.5403,-2.5398,-2.5407,-2.5391,-2.5372,-2.5368,-2.5327,-2.5351,-2.5294,-2.5327,-2.5288,-2.5292,-2.528,-2.5283,-2.5284,-2.5221,-2.5318,-2.5473,-2.5488,-2.5283,-2.5282,-2.528,0,-2.5478,-2.5486,-2.5518,-2.5514,-2.5479,-2.5496,-2.5482,-2.5463,-2.5465,-2.546,-2.5461,-2.546,-2.5461,-2.5461,-2.5421,-2.5382,-2.546,-2.5398,-2.5446,-2.5447,-2.5466,-2.5466,-2.5626,-2.5466,-2.5466,-2.5466,-2.5466,0,-2.5599,-2.5634,-2.5572,-2.5593,-2.563,-2.5579,-2.5618,-2.5597,-2.558,-2.5596,-2.5541,-2.5557,-2.5502,-2.5512,-2.5481,-2.5514,-2.5514,-2.55,-2.5492,-2.5506,-2.5508,-2.5509,-2.5502,-2.547,-2.5469,-2.5468,-2.5467,0,-2.574,-2.5699,-2.5731,-2.5695,-2.5686,-2.5716,-2.5685,-2.5703,-2.5675,-2.5696,-2.5698,-2.5655,-2.5664,-2.5623,-2.5626,-2.5605,-2.5654,-2.5634,-2.566,-2.5654,-2.5705,-2.5701,-2.5871,-2.5892,-2.5719,-2.572,-2.5722,0,-2.5821,-2.5846,-2.5812,-2.5818,-2.5807,-2.5818,-2.5819,-2.5769,-2.5773,-2.5756,-2.5776,-2.578,-2.5781,-2.5799,-2.5769,-2.577,-2.575,-2.581,-2.575,-2.5764,-2.5753,-2.5753,-2.5755,-2.5823,-2.5825,-2.5827,-2.5828,0,-2.5968,-2.5947,-2.595,-2.5947,-2.595,-2.5945,-2.5937,-2.5945,-2.5891,-2.5898,-2.5907,-2.5907,-2.5909,-2.5915,-2.591,-2.5896,-2.5854,-2.5847,-2.5858,-2.5874,-2.5889,-2.5883,-2.5696,-2.5844,-2.5842,-2.5841,-2.584,-2.584,-2.6082,-2.6102,-2.6081,-2.6087,-2.6075,-2.6068,-2.6083,-2.6057,-2.6062,-2.606,-2.6029,-2.6044,-2.6026,-2.6015,-2.6005,-2.6016,-2.5988,-2.6004,-2.6009,-2.6014,-2.6023,-2.5886,-2.6015,-2.6014,-2.6014,-2.6013,-2.6013,0,-2.6229,-2.6211,-2.6217,-2.6207,-2.6211,-2.6169,-2.6157,-2.6164,-2.6177,-2.6164,-2.6165,-2.6175,-2.618,-2.6149,-2.615,-2.6165,-2.6145,-2.6167,-2.6166,-2.6164,-2.6047,-2.6038,-2.6182,-2.6182,-2.6182,-2.6182,-2.6182,-2.6182,-2.6305,-2.6337,-2.6312,-2.6337,-2.632,-2.6333,-2.633,-2.6323,-2.6312,-2.6325,-2.6328,-2.6308,-2.6287,-2.6286,-2.6289,-2.6279,-2.6283,-2.6311,-2.6296,-2.6188,-2.6172,-2.6156,-2.6147,-2.6312,-2.6312,-2.6411,-2.6412,-2.6413]},{"header":{"parameterUnit":"m.s-1","parameterCategory":1,"la1":30.2991,"la2":30.254,"lo1":-89.0895,"lo2":-89.0444,"dy":0.0017,"dx":0.0017,"nx":28,"ny":28,"refTime":"2025-08-28T03:00:00:Z","depth":0,"parameterNumber":3,"parameterNumberName":"V-component_of_WINDS"},"data":[0,0,0,0,0,0,0,0,0,0,0,0,0,0,0,0,0,0,0,0,0,0,0,0,0,0,0,0,0,0,0,0,0,0,0,0,0,0,0,0,0,0,0,0,0,0,0,0,0,0,0,0,0,0,0,0,0,0,-4.2627,-4.2628,0,-4.27,-4.2701,-4.2702,-4.2623,-4.262,-4.2617,-4.2614,-4.2687,-4.2692,-4.2697,0,0,0,0,0,0,0,0,0,0,0,0,0,-4.2415,-4.2419,-4.2627,-4.2628,-4.2629,-4.27,-4.2701,-4.2702,-4.2624,-4.262,-4.2616,-4.2613,-4.2686,-4.2691,-4.2697,0,0,0,0,0,0,0,0,0,0,0,0,0,-4.25,-4.2421,-4.2626,-4.2598,-4.2596,-4.27,-4.2701,-4.2702,-4.2625,-4.262,-4.2616,-4.2611,-4.2684,-4.2691,-4.2698,-4.2832,0,0,-4.272,-4.2723,0,0,0,0,0,0,0,0,-4.2495,-4.2507,-4.2601,-4.26,-4.2599,-4.2648,-4.2653,-4.2746,-4.2626,-4.2614,-4.2614,-4.2609,-4.2678,-4.2685,-4.2709,-4.2835,-4.2838,-4.272,-4.2724,-4.2728,-4.273,0,0,0,0,0,0,0,-4.2489,-4.2504,-4.2655,-4.2603,-4.2601,-4.258,-4.2588,-4.267,-4.267,-4.2615,-4.2609,-4.2619,-4.2676,-4.2702,-4.271,-4.2839,-4.272,-4.2726,-4.2731,-4.2733,-4.3075,-4.308,0,0,0,0,0,0,-4.2487,-4.2499,-4.2653,-4.2658,-4.2535,-4.2588,-4.2596,-4.2637,-4.2669,-4.267,-4.2623,-4.2615,-4.2692,-4.2702,-4.2712,-4.2867,-4.2727,-4.2734,-4.2738,-4.3071,-4.3076,-4.3082,0,0,0,0,0,0,-4.2483,-4.2501,-4.265,-4.2577,-4.2595,-4.2596,-4.2643,-4.264,-4.2666,-4.2675,-4.2674,-4.2649,-4.2689,-4.2702,-4.2802,-4.2869,-4.2737,-4.2744,-4.3065,-4.3072,-4.3079,-4.3182,0,0,0,0,0,0,-4.2477,-4.25,-4.2552,-4.2579,-4.2599,-4.274,-4.2647,-4.2645,-4.2679,-4.267,-4.27,-4.2701,-4.2686,-4.2792,-4.2809,-4.2876,-4.2749,-4.3059,-4.3068,-4.3077,-4.3173,-4.3192,-4.3209,0,0,0,0,0,-4.247,-4.2579,-4.2555,-4.2574,-4.2664,-4.2744,-4.2756,-4.2737,-4.2685,-4.2736,-4.2741,-4.27,-4.286,-4.2803,-4.2821,-4.2892,-4.3054,-4.3065,-4.3076,-4.3165,-4.3188,-4.3208,0,0,0,0,0,0,-4.256,-4.2582,-4.2556,-4.2677,-4.271,-4.2731,-4.2795,-4.2764,-4.2811,-4.28,-4.2775,-4.2782,-4.2888,-4.29,-4.2836,-4.3021,-4.2948,-4.2963,-4.3009,-4.3031,-4.3049,-4.3042,-4.2755,0,0,0,0,0,-4.2594,-4.2659,-4.2674,-4.2779,-4.2797,-4.2794,-4.2828,-4.2811,-4.2843,-4.2856,-4.2869,-4.2901,-4.2958,-4.2996,-4.3049,-4.3175,-4.3178,-4.3233,-4.3251,-4.3265,-4.3278,-4.3341,-4.3364,-4.3117,-4.3117,-4.3117,0,0,-4.2665,-4.2685,-4.2727,-4.2798,-4.2821,-4.2886,-4.2806,-4.2879,-4.2927,-4.2867,-4.2961,-4.2972,-4.3006,-4.3118,-4.3168,-4.3132,-4.3347,-4.3279,-4.3291,-4.3295,-4.3355,-4.3378,-4.3399,-4.3125,-4.3123,-4.3122,0,0,-4.2826,-4.285,-4.2938,-4.2963,-4.2999,-4.2995,-4.3017,-4.3043,-4.3047,-4.3142,-4.3097,-4.3153,-4.3253,-4.3278,-4.3304,-4.3473,-4.3435,-4.3491,-4.3584,-4.3646,-4.3665,-4.3682,-4.3739,-4.376,-4.3504,-4.3504,-4.3505,0,-4.2909,-4.3008,-4.2988,-4.3064,-4.3095,-4.3044,-4.3132,-4.3157,-4.3208,-4.323,-4.3189,-4.3311,-4.333,-4.3446,-4.3487,-4.3511,-4.3532,-4.3486,-4.3664,-4.3681,-4.3697,-4.375,-4.3772,-4.3511,-4.351,-4.3509,-4.3509,0,-4.3106,-4.3175,-4.3242,-4.3292,-4.3331,-4.3413,-4.3403,-4.3445,-4.3425,-4.3425,-4.352,-4.3542,-4.3597,-4.3624,-4.3605,-4.3736,-4.3712,-4.3669,-4.3593,-4.3727,-4.3777,-4.3797,-4.352,-4.3517,-4.3516,-4.3514,0,0,-4.3326,-4.3363,-4.3388,-4.3408,-4.3443,-4.3495,-4.3574,-4.3628,-4.3662,-4.37,-4.3762,-4.3847,-4.3806,-4.3835,-4.3819,-4.3874,-4.4002,-4.3823,-4.3823,-4.3852,-4.4143,-4.4173,-4.4197,-4.3979,-4.3982,-4.3986,-4.4139,0,-4.3485,-4.3621,-4.3605,-4.3734,-4.3795,-4.3748,-4.3816,-4.3844,-4.3846,-4.3897,-4.39,-4.3958,-4.3902,-4.3919,-4.3972,-4.3976,-4.4059,-4.3965,-4.4034,-4.4036,-4.4023,-4.4224,-4.4257,-4.44,-4.4159,-4.4162,-4.4165,0,-4.3689,-4.3732,-4.3868,-4.3891,-4.3916,-4.3977,-4.4024,-4.4074,-4.4104,-4.4102,-4.4134,-4.4107,-4.4183,-4.4109,-4.4212,-4.4148,-4.4175,-4.4181,-4.4186,-4.4189,-4.4106,-4.4229,-4.4446,-4.4466,-4.4196,-4.4193,-4.4191,0,-4.383,-4.3923,-4.4015,-4.4035,-4.4066,-4.4109,-4.4124,-4.4149,-4.4182,-4.4222,-4.4242,-4.4292,-4.4318,-4.4356,-4.4342,-4.4291,-4.4447,-4.4373,-4.4444,-4.4444,-4.4477,-4.4474,-4.4698,-4.4501,-4.4501,-4.45,-4.45,0,-4.4008,-4.4092,-4.4079,-4.4135,-4.4227,-4.4207,-4.4298,-4.4306,-4.4329,-4.4384,-4.4348,-4.44,-4.4381,-4.4432,-4.4422,-4.4506,-4.4519,-4.4517,-4.4513,-4.4519,-4.4518,-4.4534,-4.4522,-4.4506,-4.4505,-4.4503,-4.4502,0,-4.418,-4.4176,-4.4272,-4.4293,-4.43,-4.4366,-4.4383,-4.4434,-4.4434,-4.4504,-4.452,-4.4519,-4.4576,-4.4567,-4.4632,-4.4625,-4.4729,-4.4715,-4.4719,-4.4714,-4.4785,-4.4777,-4.5023,-4.5053,-4.484,-4.4842,-4.4844,0,-4.4292,-4.4355,-4.4382,-4.4417,-4.4434,-4.4491,-4.4524,-4.4507,-4.4542,-4.4579,-4.4626,-4.4681,-4.4723,-4.4817,-4.4821,-4.4869,-4.4853,-4.4936,-4.486,-4.4863,-4.485,-4.4844,-4.4849,-4.495,-4.4953,-4.4955,-4.4956,0,-4.449,-4.4484,-4.4533,-4.4581,-4.4621,-4.4658,-4.4691,-4.4721,-4.4706,-4.4748,-4.4806,-4.4839,-4.4904,-4.4958,-4.5003,-4.5015,-4.4982,-4.4981,-4.4999,-4.5003,-4.5002,-4.5,-4.4756,-4.4974,-4.4972,-4.4971,-4.497,-4.4969,-4.4633,-4.4685,-4.4712,-4.4767,-4.479,-4.4821,-4.487,-4.4875,-4.4924,-4.4975,-4.4962,-4.5028,-4.5053,-4.511,-4.5128,-4.5178,-4.5147,-4.5174,-4.5181,-4.5187,-4.5193,-4.4997,-4.5186,-4.5186,-4.5185,-4.5185,-4.5184,0,-4.4825,-4.4839,-4.4891,-4.4937,-4.498,-4.4947,-4.4981,-4.5018,-4.5077,-4.5104,-4.5146,-4.5212,-4.5263,-4.5271,-4.5319,-4.5357,-4.5343,-4.537,-4.5365,-4.5368,-4.522,-4.5198,-4.538,-4.538,-4.538,-4.538,-4.538,-4.538,-4.493,-4.5016,-4.5013,-4.5109,-4.5122,-4.5186,-4.5208,-4.5236,-4.5257,-4.5332,-4.5374,-4.538,-4.5398,-4.5447,-4.5491,-4.5492,-4.551,-4.5542,-4.5537,-4.5398,-4.5378,-4.536,-4.5338,-4.5547,-4.5547,-4.5679,-4.568,-4.5681]}]]